Location: Yellowknife
(62.4500°N, 114.3500°W)
Time: 20:00:38
(UTC-06:00)

Amateur Radio Satellites - All Passes

Search period start: 29 July 2016 19:30
Search period end: 30 July 2016 19:30
Location: Yellowknife, 62.4500°N, 114.3500°W

Satellite Date Start Highest point End Downlink Frequencies (MHz)
Time Altitude Azimuth
MOZHAYETS 4 29 Jul 19:36:36 19:40:32 29° 308° (NW) 19:44:28
BEESAT 3 29 Jul 19:38:23 19:41:41 26° 129° (SE) 19:45:01 437.485
PCSat 29 Jul 19:38:58 19:43:02 22° 114° (ESE) 19:47:07 145.827
DOVE 4 29 Jul 19:39:41 19:44:11 68° 256° (WSW) 19:49:02 437.250
AUBIESAT-1 29 Jul 19:42:39 19:45:47 20° 31° (NNE) 19:49:02 437.475
Cosmos 2499 29 Jul 19:43:04 19:50:40 32° 318° (NW) 19:57:55 435.465 / 435.565
FUNcube-1 29 Jul 19:43:16 19:46:42 21° 46° (NE) 19:50:08 145.935
AAUSAT CUBESAT 2 29 Jul 19:44:00 19:47:38 30° 56° (NE) 19:51:16 437.432
DELFI C3 29 Jul 19:45:09 19:46:55 13° 40° (NE) 19:48:39 145.870
ZACube-1 29 Jul 19:45:39 19:49:12 22° 47° (NE) 19:52:46 437.345
ITUPSAT 1 29 Jul 19:46:44 19:49:04 14° 330° (NNW) 19:51:24 437.325
NOAA 18 29 Jul 19:47:31 19:52:35 35° 266° (W) 19:57:40 137.9125
BEESAT 2 29 Jul 19:50:33 19:53:39 22° 126° (SE) 19:56:45 435.950
UWE-3 29 Jul 19:50:56 19:54:58 29° 52° (NE) 19:59:01 435.000/436.395/437.385
RS-15 29 Jul 19:51:48 19:53:47 11° 280° (W) 19:55:45 29.354- 29.394
CANX-2 29 Jul 20:00:10 20:04:26 73° 69° (ENE) 20:08:43 2200.000
GOMX 1 29 Jul 20:02:18 20:06:06 29° 269° (W) 20:10:08 467.674
HO-68 29 Jul 20:03:46 20:11:01 89° 244° (WSW) 20:18:18 435.675
Cubesat XI-IV 29 Jul 20:05:20 20:09:56 28° 270° (W) 20:14:34 437.490
CUTE 1.7 + AOD 2 29 Jul 20:13:01 20:17:18 82° 70° (ENE) 20:21:35 437.475
CUBEBUG 2 29 Jul 20:18:23 20:22:57 51° 62° (ENE) 20:27:36 437.445
KKS-1 29 Jul 20:18:30 20:21:43 20° 317° (NW) 20:24:56 437.445
Oscar 11 29 Jul 20:21:04 20:24:56 32° 56° (NE) 20:28:50 145.826/435.025
STRAND 1 29 Jul 20:26:12 20:30:50 33° 93° (E) 20:35:25 437.568
CUTE-I 29 Jul 20:29:02 20:33:03 21° 275° (W) 20:37:04 437.470
HUMSAT D 29 Jul 20:35:39 20:38:36 18° 45° (NE) 20:41:33 437.325/437.525
Cosmos 2491 29 Jul 20:39:00 20:45:44 26° 71° (ENE) 20:52:29 435.465 / 435.565
NOAA 15 29 Jul 20:41:22 20:44:11 14° 281° (W) 20:47:02 137.62
SEEDS 29 Jul 20:46:59 20:51:12 72° 256° (WSW) 20:55:25 437.485
Cosmos 2504 29 Jul 20:48:54 20:56:54 42° 52° (NE) 21:04:19 435.465 / 435.565
STARS 29 Jul 20:49:21 20:52:26 19° 318° (NW) 20:55:32 437.465
M-CUBED/EXP-1 PRIME 29 Jul 20:52:01 20:55:58 43° 50° (NE) 21:00:14 437.505
COMPASS 1 29 Jul 20:53:17 20:57:29 82° 255° (WSW) 21:01:41 437.405
YUBILEINY 29 Jul 20:55:11 21:04:07 77° 71° (ENE) 21:12:58 435.215
AO-85 29 Jul 20:58:09 21:02:58 73° 212° (SSW) 21:07:21 145.980
O/OREOS (USA 219) 29 Jul 20:59:20 21:02:54 24° 108° (ESE) 21:06:29 437.305
CUBESAT XI-V 29 Jul 21:03:43 21:07:40 29° 308° (NW) 21:11:37 437.345
GONETS M04 29 Jul 21:03:59 21:10:29 22° 345° (NNW) 21:17:02
PRISM 29 Jul 21:04:20 21:06:22 13° 83° (E) 21:08:25 437.425
CINEMA 3 29 Jul 21:07:52 21:12:20 40° 264° (W) 21:17:01 145.822/145.860
AISAT 29 Jul 21:14:05 21:15:50 12° 31° (NNE) 21:17:35 437.250
MOZHAYETS 4 29 Jul 21:14:59 21:16:28 11° 331° (NNW) 21:17:58
BEESAT 3 29 Jul 21:15:00 21:18:58 78° 152° (SSE) 21:22:58 437.485
AUBIESAT-1 29 Jul 21:15:25 21:19:30 53° 54° (NE) 21:23:51 437.475
DELFI C3 29 Jul 21:17:10 21:20:55 41° 61° (ENE) 21:24:40 145.870
FUNcube-1 29 Jul 21:17:45 21:22:20 70° 67° (ENE) 21:26:56 145.935
AAUSAT CUBESAT 2 29 Jul 21:18:49 21:22:56 62° 256° (WSW) 21:27:04 437.432
DOVE 4 29 Jul 21:19:59 21:22:54 17° 279° (W) 21:25:56 437.250
PCSat 29 Jul 21:20:15 21:25:38 65° 136° (SE) 21:31:02 145.827
ZACube-1 29 Jul 21:20:20 21:24:56 76° 69° (ENE) 21:29:34 437.345
UWE-3 29 Jul 21:26:25 21:31:06 78° 254° (WSW) 21:35:50 435.000/436.395/437.385
BEESAT 2 29 Jul 21:27:00 21:30:58 69° 149° (SSE) 21:34:59 435.950
CANX-2 29 Jul 21:37:14 21:40:46 24° 270° (W) 21:44:18 2200.000
SPROUT 29 Jul 21:40:08 21:40:57 10° 30° (NNE) 21:41:47 437.525
Cosmos 2499 29 Jul 21:41:04 21:46:57 20° 348° (NNW) 21:52:36 435.465 / 435.565
CUTE 1.7 + AOD 2 29 Jul 21:50:20 21:53:41 22° 272° (W) 21:57:02 437.475
HO-68 29 Jul 21:53:20 21:59:40 32° 270° (W) 22:06:03 435.675
50 SAT 29 Jul 21:54:01 21:55:38 13° 42° (NE) 21:57:16 437.505
CUBEBUG 2 29 Jul 21:55:16 21:59:44 41° 264° (W) 22:04:17 437.445
Oscar 11 29 Jul 21:56:36 22:00:55 61° 256° (WSW) 22:05:16 145.826/435.025
CUBEBUG 1 29 Jul 21:56:49 21:59:46 18° 43° (NE) 22:02:45 437.445
ESTCUBE 1 29 Jul 21:58:41 22:02:13 23° 47° (NE) 22:05:44 437.505/2401.250
VELOX 1 29 Jul 22:03:17 22:06:23 19° 43° (NE) 22:09:30 145.980
STRAND 1 29 Jul 22:05:19 22:10:26 69° 296° (WNW) 22:15:31 437.568
HUMSAT D 29 Jul 22:09:19 22:13:35 63° 66° (ENE) 22:17:51 437.325/437.525
AIST 2 29 Jul 22:15:15 22:18:51 29° 130° (SE) 22:22:28 435.215
SEEDS 29 Jul 22:25:03 22:27:41 16° 276° (W) 22:30:18 437.485
M-CUBED/EXP-1 PRIME 29 Jul 22:26:31 22:30:30 48° 252° (WSW) 22:34:50 437.505
COMPASS 1 29 Jul 22:30:53 22:33:44 18° 274° (W) 22:36:35 437.405
Cosmos 2491 29 Jul 22:32:34 22:41:11 70° 97° (E) 22:49:52 435.465 / 435.565
DX 1 29 Jul 22:36:59 22:40:28 24° 48° (NE) 22:43:57 434.975-435.025
O/OREOS (USA 219) 29 Jul 22:37:19 22:41:50 89° 119° (ESE) 22:46:22 437.305
PRISM 29 Jul 22:38:28 22:42:33 62° 105° (ESE) 22:46:37 437.425
AO-85 29 Jul 22:39:03 22:42:50 25° 235° (SW) 22:46:22 145.980
AIST 1 29 Jul 22:41:17 22:44:14 18° 47° (NE) 22:47:12
CUBESAT XI-V 29 Jul 22:42:21 22:43:49 11° 331° (NNW) 22:45:17 437.345
Cosmos 2504 29 Jul 22:42:44 22:51:11 81° 259° (W) 22:58:59 435.465 / 435.565
UKube-1 29 Jul 22:45:00 22:48:26 23° 48° (NE) 22:51:51 .
TIGRISAT 29 Jul 22:46:10 22:49:13 17° 83° (E) 22:52:15 435.000
AISAT 29 Jul 22:47:17 22:51:12 32° 54° (NE) 22:55:09 437.250
AUBIESAT-1 29 Jul 22:50:16 22:54:09 38° 256° (WSW) 22:58:17 437.475
CINEMA 3 29 Jul 22:50:19 22:50:55 10° 287° (WNW) 22:51:32 145.822/145.860
DELFI C3 29 Jul 22:52:05 22:55:51 39° 262° (W) 22:59:36 145.870
YUBILEINY 29 Jul 22:52:22 23:00:29 43° 277° (W) 23:08:33 435.215
BEESAT 3 29 Jul 22:52:53 22:56:50 61° 354° (N) 23:00:48 437.485
FUNcube-1 29 Jul 22:55:02 22:59:00 28° 269° (W) 23:02:59 145.935
AAUSAT CUBESAT 2 29 Jul 22:57:12 22:59:18 13° 278° (W) 23:01:24 437.432
ZACube-1 29 Jul 22:57:49 23:01:42 26° 270° (W) 23:05:37 437.345
UNISAT 6 29 Jul 23:03:15 23:06:56 23° 87° (E) 23:10:35 437.425
PCSat 29 Jul 23:03:46 23:09:12 64° 341° (NNW) 23:14:37 145.827
GONETS M04 29 Jul 23:04:37 23:11:17 23° 18° (NNE) 23:17:58
BEESAT 2 29 Jul 23:04:57 23:08:56 64° 351° (N) 23:12:57 435.950
UWE-3 29 Jul 23:04:57 23:08:20 19° 276° (W) 23:11:43 435.000/436.395/437.385
SPROUT 29 Jul 23:12:04 23:15:43 28° 52° (NE) 23:19:24 437.525
ISS 29 Jul 23:15:13 23:15:51 10° 163° (SSE) 23:16:28 145.825
50 SAT 29 Jul 23:25:01 23:28:32 46° 63° (ENE) 23:32:03 437.505
CUBEBUG 1 29 Jul 23:31:06 23:35:22 60° 65° (ENE) 23:39:42 437.445
ESTCUBE 1 29 Jul 23:34:02 23:38:32 81° 69° (ENE) 23:43:03 437.505/2401.250
Oscar 11 29 Jul 23:35:40 23:37:59 14° 279° (W) 23:40:18 145.826/435.025
CUBEBUG 2 29 Jul 23:37:05 23:37:42 10° 286° (WNW) 23:38:19 437.445
Cosmos 2499 29 Jul 23:37:42 23:43:48 22° 20° (NNE) 23:49:35 435.465 / 435.565
VELOX 1 29 Jul 23:37:50 23:42:11 62° 65° (ENE) 23:46:35 145.980
ANTELSAT 29 Jul 23:41:21 23:45:46 39° 96° (E) 23:50:04 437.575/2403.000
STRAND 1 29 Jul 23:44:57 23:48:58 24° 318° (NW) 23:52:57 437.568
HUMSAT D 29 Jul 23:45:48 23:49:33 29° 267° (W) 23:53:20 437.325/437.525
SWISSCUBE 29 Jul 23:49:03 23:51:37 15° 32° (NNE) 23:54:10 437.505
AIST 2 29 Jul 23:52:49 23:56:59 83° 150° (SSE) 00:01:10 435.215
TISAT 1 29 Jul 23:56:39 00:00:03 24° 49° (NE) 00:03:29 437.305
QB50P1 29 Jul 23:59:26 00:02:01 15° 84° (E) 00:04:37 145.935-145.965
M-CUBED/EXP-1 PRIME 30 Jul 00:04:54 00:06:11 11° 275° (W) 00:07:30 437.505
POPSAT HIP 1 30 Jul 00:06:02 00:08:53 17° 85° (E) 00:11:43 437.405
BEESAT 30 Jul 00:09:26 00:12:25 17° 36° (NE) 00:15:24 436.000
DX 1 30 Jul 00:11:52 00:16:14 87° 64° (ENE) 00:20:37 434.975-435.025
PRISM 30 Jul 00:14:05 00:17:41 30° 306° (NW) 00:21:17 437.425
O/OREOS (USA 219) 30 Jul 00:17:36 00:21:44 35° 334° (NNW) 00:25:55 437.305
AIST 1 30 Jul 00:18:24 00:22:44 64° 70° (ENE) 00:27:04
UKube-1 30 Jul 00:19:42 00:24:02 85° 66° (ENE) 00:28:23 .
TIGRISAT 30 Jul 00:22:06 00:26:49 69° 105° (ESE) 00:31:23 435.000
AISAT 30 Jul 00:23:06 00:27:30 64° 256° (WSW) 00:31:56 437.250
QB50P2 30 Jul 00:27:23 00:30:58 24° 91° (E) 00:34:31 145.880/145.840
POLYITAN 1 30 Jul 00:30:01 00:33:37 25° 91° (E) 00:37:11 437.675
Cosmos 2491 30 Jul 00:30:13 00:38:38 50° 304° (WNW) 00:47:06 435.465 / 435.565
BEESAT 3 30 Jul 00:30:51 00:34:50 74° 18° (NNE) 00:38:49 437.485
ITUPSAT 1 30 Jul 00:33:50 00:37:20 21° 42° (NE) 00:40:51 437.325
Cosmos 2504 30 Jul 00:36:37 00:43:30 30° 285° (WNW) 00:49:59 435.465 / 435.565
UNISAT 6 30 Jul 00:39:34 00:44:18 88° 296° (WNW) 00:48:56 437.425
BEESAT 2 30 Jul 00:43:05 00:47:06 69° 15° (NNE) 00:51:07 435.950
SPROUT 30 Jul 00:47:04 00:51:23 75° 255° (WSW) 00:55:43 437.525
PCSat 30 Jul 00:47:54 00:53:15 54° 5° (N) 00:58:37 145.827
ISS 30 Jul 00:49:42 00:51:16 13° 183° (S) 00:52:51 145.825
YUBILEINY 30 Jul 00:50:18 00:54:52 15° 304° (WNW) 00:59:26 435.215
50 SAT 30 Jul 00:59:03 01:02:20 30° 264° (W) 01:05:37 437.505
GONETS M04 30 Jul 01:02:52 01:11:06 41° 49° (NE) 01:19:20
KKS-1 30 Jul 01:05:02 01:06:15 11° 27° (NNE) 01:07:27 437.445
CUBEBUG 1 30 Jul 01:08:08 01:11:59 30° 266° (W) 01:15:53 437.445
NANOSAT C BR1 30 Jul 01:10:03 01:14:11 44° 99° (E) 01:18:17 145.865
ESTCUBE 1 30 Jul 01:12:16 01:15:54 24° 271° (W) 01:19:33 437.505/2401.250
DUCHIFAT 1 30 Jul 01:12:46 01:16:54 44° 99° (E) 01:21:01 145.980
BUGSAT 1 30 Jul 01:14:30 01:18:11 27° 92° (E) 01:21:52 437.445
JAS-2 30 Jul 01:14:37 01:19:01 26° 90° (E) 01:23:35 435.910
VELOX 1 30 Jul 01:15:07 01:19:01 30° 266° (W) 01:22:56 145.980
ANTELSAT 30 Jul 01:18:06 01:22:40 52° 298° (WNW) 01:27:08 437.575/2403.000
SWISSCUBE 30 Jul 01:23:57 01:28:20 37° 55° (NE) 01:32:43 437.505
STRAND 1 30 Jul 01:24:51 01:26:37 12° 342° (NNW) 01:28:23 437.568
Oscar 19 30 Jul 01:30:19 01:32:57 14° 78° (ENE) 01:35:33 437.125/150
TISAT 1 30 Jul 01:31:03 01:35:18 89° 262° (W) 01:39:36 437.305
AIST 2 30 Jul 01:31:33 01:35:41 62° 355° (N) 01:39:51 435.215
Cosmos 2499 30 Jul 01:32:02 01:39:40 40° 50° (NE) 01:46:44 435.465 / 435.565
QB50P1 30 Jul 01:34:19 01:38:37 68° 104° (ESE) 01:42:55 145.935-145.965
STARS 30 Jul 01:35:09 01:36:20 11° 28° (NNE) 01:37:31 437.465
POPSAT HIP 1 30 Jul 01:41:05 01:45:25 75° 106° (ESE) 01:49:44 437.405
BEESAT 30 Jul 01:44:43 01:49:17 45° 58° (ENE) 01:53:51 436.000
DX 1 30 Jul 01:49:41 01:53:01 21° 271° (W) 01:56:23 434.975-435.025
PRISM 30 Jul 01:50:58 01:51:56 11° 328° (NNW) 01:52:55 437.425
AIST 1 30 Jul 01:56:24 02:00:05 27° 272° (W) 02:03:45
UKube-1 30 Jul 01:57:19 02:00:39 21° 271° (W) 02:04:01 .
O/OREOS (USA 219) 30 Jul 01:58:33 02:02:18 25° 359° (N) 02:06:03 437.305
TIGRISAT 30 Jul 01:59:05 02:03:15 32° 307° (NW) 02:07:20 435.000
MOZHAYETS 4 30 Jul 01:59:26 02:02:35 18° 42° (NE) 02:05:45
AISAT 30 Jul 02:02:20 02:04:53 15° 277° (W) 02:07:27 437.250
QB50P2 30 Jul 02:02:55 02:07:14 74° 292° (WNW) 02:11:32 145.880/145.840
POLYITAN 1 30 Jul 02:05:33 02:09:53 73° 292° (WNW) 02:14:11 437.675
BEESAT 3 30 Jul 02:08:37 02:12:28 47° 219° (SW) 02:16:17 437.485
ITUPSAT 1 30 Jul 02:09:44 02:14:29 62° 63° (ENE) 02:19:14 437.325
UNISAT 6 30 Jul 02:16:43 02:20:34 26° 311° (NW) 02:24:22 437.425
BEESAT 2 30 Jul 02:21:01 02:24:58 56° 217° (SW) 02:28:54 435.950
SPROUT 30 Jul 02:25:17 02:28:06 17° 276° (W) 02:30:56 437.525
Cosmos 2491 30 Jul 02:31:04 02:38:02 25° 334° (NNW) 02:45:01 435.465 / 435.565
PCSat 30 Jul 02:31:42 02:37:11 81° 30° (NNE) 02:42:38 145.827
KKS-1 30 Jul 02:37:49 02:41:34 27° 50° (NE) 02:45:21 437.445
NANOSAT C BR1 30 Jul 02:45:54 02:49:57 41° 300° (WNW) 02:53:59 145.865
DUCHIFAT 1 30 Jul 02:48:36 02:52:39 41° 300° (WNW) 02:56:40 145.980
BUGSAT 1 30 Jul 02:49:42 02:53:56 66° 294° (WNW) 02:58:10 437.445
ANTELSAT 30 Jul 02:55:26 02:58:32 18° 320° (NW) 03:01:36 437.575/2403.000
JAS-2 30 Jul 02:59:35 03:04:49 84° 292° (WNW) 03:10:21 435.910
GONETS M04 30 Jul 03:00:11 03:09:02 87° 257° (WSW) 03:17:54
SWISSCUBE 30 Jul 03:01:15 03:06:01 61° 256° (WSW) 03:10:47 437.505
STARS 30 Jul 03:07:45 03:11:29 27° 50° (NE) 03:15:14 437.465
Oscar 19 30 Jul 03:08:27 03:13:31 51° 101° (E) 03:18:35 437.125/150
TISAT 1 30 Jul 03:08:28 03:11:34 20° 272° (W) 03:14:44 437.305
AIST 2 30 Jul 03:10:18 03:14:29 78° 19° (NNE) 03:18:42 435.215
QB50P1 30 Jul 03:10:25 03:14:10 29° 306° (NW) 03:17:54 145.935-145.965
ITAMSAT 1 30 Jul 03:11:19 03:14:30 16° 81° (E) 03:17:41 435.822/435.867
Gurwin Techsat 1B 30 Jul 03:14:49 03:19:43 35° 94° (E) 03:24:34 435.225
POPSAT HIP 1 30 Jul 03:17:15 03:20:55 27° 308° (NW) 03:24:34 437.405
BEESAT 30 Jul 03:22:29 03:27:07 48° 260° (W) 03:31:47 436.000
Cosmos 2499 30 Jul 03:25:35 03:33:44 83° 258° (WSW) 03:41:14 435.465 / 435.565
CUBESAT XI-V 30 Jul 03:27:25 03:30:34 18° 42° (NE) 03:33:43 437.345
MOZHAYETS 4 30 Jul 03:34:29 03:39:01 57° 64° (ENE) 03:43:33
AO-7 30 Jul 03:36:19 03:41:59 19° 77° (ENE) 03:47:37 29.400- 29.500
TIGRISAT 30 Jul 03:36:45 03:38:45 13° 329° (NNW) 03:40:46 435.000
O/OREOS (USA 219) 30 Jul 03:38:46 03:42:53 33° 24° (NNE) 03:47:00 437.305
QB50P2 30 Jul 03:39:17 03:42:30 21° 313° (NW) 03:45:42 145.880/145.840
POLYITAN 1 30 Jul 03:41:56 03:45:08 21° 314° (NW) 03:48:20 437.675
BEESAT 3 30 Jul 03:47:16 03:49:21 14° 241° (WSW) 03:51:26 437.485
ITUPSAT 1 30 Jul 03:48:16 03:52:39 34° 265° (W) 03:57:02 437.325
UNISAT 6 30 Jul 03:54:45 03:55:56 11° 334° (NNW) 03:57:06 437.425
BEESAT 2 30 Jul 03:59:30 04:02:08 17° 238° (WSW) 04:04:45 435.950
DANDE 30 Jul 04:03:31 04:05:43 14° 91° (E) 04:07:41 436.750
KKS-1 30 Jul 04:13:18 04:17:47 83° 252° (WSW) 04:22:19 437.445
PCSat 30 Jul 04:15:16 04:20:22 42° 233° (SW) 04:25:27 145.827
NANOSAT C BR1 30 Jul 04:22:34 04:24:47 14° 322° (NW) 04:27:00 145.865
DUCHIFAT 1 30 Jul 04:25:13 04:27:27 14° 322° (NW) 04:29:39 145.980
BUGSAT 1 30 Jul 04:25:42 04:28:42 19° 315° (NW) 04:31:42 437.445
Cosmos 2491 30 Jul 04:32:29 04:38:45 21° 6° (N) 04:45:01 435.465 / 435.565
STRAND 1 30 Jul 04:38:14 04:41:13 16° 30° (NNE) 04:44:10 437.568
SWISSCUBE 30 Jul 04:41:59 04:44:48 15° 278° (W) 04:47:39 437.505
STARS 30 Jul 04:43:03 04:47:30 81° 253° (WSW) 04:51:59 437.465
JAS-2 30 Jul 04:45:11 04:49:30 27° 315° (NW) 04:53:56 435.910
QB50P1 30 Jul 04:47:38 04:48:49 11° 329° (NNW) 04:49:59 145.935-145.965
Oscar 19 30 Jul 04:47:58 04:52:54 46° 303° (WNW) 04:57:50 437.125/150
AIST 2 30 Jul 04:48:53 04:52:53 45° 221° (SW) 04:56:52 435.215
ITAMSAT 1 30 Jul 04:49:56 04:55:06 60° 104° (ESE) 05:00:14 435.822/435.867
CUSAT 1 30 Jul 04:51:07 04:54:11 67° 106° (ESE) 04:56:52 437.405
POPSAT HIP 1 30 Jul 04:54:44 04:55:31 10° 330° (NNW) 04:56:18 437.405
Gurwin Techsat 1B 30 Jul 04:54:46 05:00:05 68° 296° (WNW) 05:05:22 435.225
GONETS M04 30 Jul 04:57:25 05:04:59 34° 283° (WNW) 05:12:34
CUBESAT XI-V 30 Jul 05:02:41 05:07:13 57° 64° (ENE) 05:11:44 437.345
BEESAT 30 Jul 05:04:16 05:06:07 12° 282° (WNW) 05:07:59 436.000
MOZHAYETS 4 30 Jul 05:12:13 05:16:28 35° 265° (W) 05:20:43
O/OREOS (USA 219) 30 Jul 05:18:19 05:22:53 82° 47° (NE) 05:27:27 437.305
HORYU 2 30 Jul 05:18:19 05:20:45 14° 82° (E) 05:23:08 437.375
Cosmos 2499 30 Jul 05:19:12 05:25:52 30° 284° (WNW) 05:32:06 435.465 / 435.565
AO-7 30 Jul 05:28:42 05:36:55 54° 103° (ESE) 05:45:03 29.400- 29.500
DANDE 30 Jul 05:44:01 05:48:13 88° 106° (ESE) 05:51:28 436.750
KKS-1 30 Jul 05:51:50 05:55:04 19° 273° (W) 05:58:20 437.445
PCSat 30 Jul 06:00:16 06:02:30 13° 256° (WSW) 06:04:43 145.827
RS-15 30 Jul 06:03:03 06:11:15 23° 97° (E) 06:19:40 29.354- 29.394
STRAND 1 30 Jul 06:14:32 06:19:14 37° 53° (NE) 06:23:56 437.568
GOMX 1 30 Jul 06:14:44 06:16:26 12° 76° (ENE) 06:18:11 467.674
NOAA 18 30 Jul 06:17:59 06:20:33 13° 77° (ENE) 06:23:06 137.9125
STARS 30 Jul 06:21:27 06:24:35 19° 274° (W) 06:27:45 437.465
Oscar 19 30 Jul 06:27:50 06:31:15 18° 325° (NW) 06:34:40 437.125/150
AIST 2 30 Jul 06:28:29 06:30:30 13° 243° (WSW) 06:32:31 435.215
ITAMSAT 1 30 Jul 06:29:38 06:34:30 41° 306° (NW) 06:39:21 435.822/435.867
Cubesat XI-IV 30 Jul 06:30:38 06:33:52 16° 80° (E) 06:37:04 437.490
PRISM 30 Jul 06:30:46 06:32:42 13° 37° (NE) 06:34:38 437.425
JAS-2 30 Jul 06:30:57 06:33:08 13° 340° (NNW) 06:35:20 435.910
Cosmos 2491 30 Jul 06:31:29 06:39:06 32° 38° (NE) 06:46:43 435.465 / 435.565
CUSAT 1 30 Jul 06:34:49 06:36:30 14° 306° (NW) 06:38:06 437.405
Gurwin Techsat 1B 30 Jul 06:35:09 06:39:21 24° 319° (NW) 06:43:32 435.225
CUBESAT XI-V 30 Jul 06:40:40 06:44:53 34° 266° (W) 06:49:07 437.345
LilacSat-2 30 Jul 06:47:29 06:49:49 15° 84° (E) 06:52:07 437.200
CUTE-I 30 Jul 06:52:48 06:56:52 21° 85° (E) 07:00:54 437.470
HORYU 2 30 Jul 06:53:47 06:58:16 60° 104° (ESE) 07:02:42 437.375
GONETS M04 30 Jul 06:56:12 06:58:58 12° 310° (NW) 07:01:43
O/OREOS (USA 219) 30 Jul 06:58:06 07:01:55 27° 250° (WSW) 07:05:45 437.305
NOAA 15 30 Jul 07:01:44 07:06:15 28° 91° (E) 07:10:45 137.62
BRITE-PL 30 Jul 07:06:19 07:10:41 36° 95° (E) 07:15:22 437.365/2234.400
HO-68 30 Jul 07:21:25 07:23:34 11° 68° (ENE) 07:25:43 435.675
AO-7 30 Jul 07:21:46 07:30:04 66° 307° (NW) 07:38:17 29.400- 29.500
DOVE 4 30 Jul 07:27:12 07:31:02 21° 84° (E) 07:34:57 437.250
DANDE 30 Jul 07:28:50 07:31:19 17° 306° (NW) 07:33:30 436.750
ANTELSAT 30 Jul 07:41:17 07:43:14 12° 30° (NNE) 07:45:11 437.575/2403.000
GOMX 1 30 Jul 07:51:02 07:55:47 44° 97° (E) 08:00:48 467.674
STRAND 1 30 Jul 07:53:07 07:58:15 67° 255° (WSW) 08:03:24 437.568
NOAA 18 30 Jul 07:57:17 08:02:40 47° 100° (E) 08:08:00 137.9125
PRISM 30 Jul 08:03:19 08:07:08 40° 59° (ENE) 08:10:59 437.425
Oscar 19 30 Jul 08:08:03 08:08:51 10° 349° (N) 08:09:38 437.125/150
ITAMSAT 1 30 Jul 08:09:38 08:12:54 17° 329° (NNW) 08:16:10 435.822/435.867
RS-15 30 Jul 08:09:40 08:20:53 55° 125° (SE) 08:32:35 29.354- 29.394
Cubesat XI-IV 30 Jul 08:09:50 08:15:09 57° 103° (ESE) 08:20:25 437.490
JAS-2 30 Jul 08:15:20 08:16:12 10° 6° (N) 08:17:05 435.910
Gurwin Techsat 1B 30 Jul 08:15:38 08:17:45 12° 342° (NNW) 08:19:51 435.225
YUBILEINY 30 Jul 08:17:09 08:23:10 21° 64° (ENE) 08:29:12 435.215
TIGRISAT 30 Jul 08:20:19 08:23:23 17° 39° (NE) 08:26:26 435.000
LilacSat-2 30 Jul 08:20:54 08:24:50 76° 107° (ESE) 08:28:41 437.200
SEEDS 30 Jul 08:21:37 08:22:52 11° 79° (ENE) 08:24:07 437.485
Cosmos 2491 30 Jul 08:29:00 08:37:47 69° 67° (ENE) 08:46:33 435.465 / 435.565
HORYU 2 30 Jul 08:30:36 08:34:42 35° 305° (NW) 08:38:45 437.375
CUTE-I 30 Jul 08:32:25 08:37:49 77° 108° (ESE) 08:43:10 437.470
UNISAT 6 30 Jul 08:37:14 08:40:43 21° 44° (NE) 08:44:13 437.425
NOAA 15 30 Jul 08:41:21 08:46:39 82° 293° (WNW) 08:51:56 137.62
BRITE-PL 30 Jul 08:44:51 08:49:26 58° 295° (WNW) 08:54:24 437.365/2234.400
CINEMA 3 30 Jul 08:50:55 08:55:23 31° 91° (E) 08:59:50 145.822/145.860
AAUSAT CUBESAT 2 30 Jul 08:51:23 08:53:07 12° 80° (E) 08:54:50 437.432
DOVE 4 30 Jul 09:04:25 09:09:31 76° 105° (ESE) 09:14:48 437.250
NANOSAT C BR1 30 Jul 09:05:21 09:06:40 11° 32° (NNE) 09:07:58 145.865
UWE-3 30 Jul 09:06:16 09:08:35 14° 79° (ENE) 09:10:53 435.000/436.395/437.385
SO-50 30 Jul 09:06:56 09:11:10 31° 130° (SE) 09:15:23 436.795
HO-68 30 Jul 09:07:04 09:13:42 37° 93° (E) 09:20:17 435.675
DUCHIFAT 1 30 Jul 09:07:54 09:09:12 11° 32° (NNE) 09:10:29 145.980
CANX-2 30 Jul 09:10:08 09:14:00 33° 95° (E) 09:17:50 2200.000
AO-7 30 Jul 09:14:28 09:21:48 36° 333° (NNW) 09:29:06 29.400- 29.500
ANTELSAT 30 Jul 09:14:37 09:18:45 31° 53° (NE) 09:22:54 437.575/2403.000
CUTE 1.7 + AOD 2 30 Jul 09:22:50 09:26:48 37° 96° (E) 09:30:43 437.475
QB50P1 30 Jul 09:28:29 09:30:49 15° 39° (NE) 09:33:10 145.935-145.965
GOMX 1 30 Jul 09:29:15 09:34:01 52° 298° (WNW) 09:39:05 467.674
Oscar 11 30 Jul 09:33:40 09:36:04 14° 82° (E) 09:38:26 145.826/435.025
CUBEBUG 2 30 Jul 09:34:52 09:38:54 27° 89° (E) 09:42:52 437.445
STRAND 1 30 Jul 09:34:58 09:38:26 18° 277° (W) 09:41:54 437.568
POPSAT HIP 1 30 Jul 09:35:02 09:37:33 15° 40° (NE) 09:40:06 437.405
NOAA 18 30 Jul 09:38:04 09:43:31 54° 302° (WNW) 09:48:53 137.9125
PRISM 30 Jul 09:38:36 09:42:30 42° 260° (W) 09:46:25 437.425
Cosmos 2504 30 Jul 09:42:59 09:49:27 24° 69° (ENE) 09:55:46 435.465 / 435.565
Oscar 19 30 Jul 09:44:56 09:46:11 11° 14° (NNE) 09:47:25 437.125/150
ITAMSAT 1 30 Jul 09:49:36 09:50:36 11° 353° (N) 09:51:36 435.822/435.867
Cubesat XI-IV 30 Jul 09:50:07 09:55:12 44° 305° (NW) 10:00:14 437.490
Gurwin Techsat 1B 30 Jul 09:54:32 09:55:42 11° 7° (N) 09:56:53 435.225
TIGRISAT 30 Jul 09:54:40 09:59:13 50° 61° (ENE) 10:03:47 435.000
SEEDS 30 Jul 09:55:31 09:59:37 50° 100° (E) 10:03:41 437.485
LilacSat-2 30 Jul 09:55:38 09:58:49 24° 307° (NW) 10:01:57 437.200
QB50P2 30 Jul 09:56:03 09:59:10 20° 46° (NE) 10:02:18 145.880/145.840
JAS-2 30 Jul 09:56:05 09:59:28 17° 33° (NNE) 10:02:48 435.910
POLYITAN 1 30 Jul 09:58:39 10:01:48 20° 46° (NE) 10:04:58 437.675
COMPASS 1 30 Jul 10:00:42 10:04:41 43° 98° (E) 10:08:38 437.405
HORYU 2 30 Jul 10:08:05 10:10:12 13° 328° (NNW) 10:12:18 437.375
YUBILEINY 30 Jul 10:09:35 10:18:07 57° 91° (E) 10:26:42 435.215
UNISAT 6 30 Jul 10:12:06 10:16:47 66° 65° (ENE) 10:21:29 437.425
CUTE-I 30 Jul 10:12:47 10:17:35 34° 310° (NW) 10:22:22 437.470
DELFI C3 30 Jul 10:19:07 10:21:35 16° 85° (E) 10:24:03 145.870
RS-15 30 Jul 10:20:50 10:32:48 90° 156° (SSE) 10:45:15 29.354- 29.394
NOAA 15 30 Jul 10:21:31 10:25:55 28° 315° (NW) 10:30:19 137.62
BRITE-PL 30 Jul 10:24:03 10:27:16 19° 316° (NW) 10:30:39 437.365/2234.400
AAUSAT CUBESAT 2 30 Jul 10:25:27 10:29:33 56° 102° (ESE) 10:33:36 437.432
Cosmos 2491 30 Jul 10:26:12 10:34:27 49° 273° (W) 10:42:43 435.465 / 435.565
CINEMA 3 30 Jul 10:27:55 10:32:57 72° 293° (WNW) 10:37:58 145.822/145.860
FUNcube-1 30 Jul 10:31:11 10:35:20 34° 94° (E) 10:39:23 145.935
ZACube-1 30 Jul 10:34:06 10:38:21 37° 95° (E) 10:42:29 437.345
NANOSAT C BR1 30 Jul 10:37:32 10:41:17 31° 54° (NE) 10:45:04 145.865
DUCHIFAT 1 30 Jul 10:40:02 10:43:47 30° 54° (NE) 10:47:33 145.980
BUGSAT 1 30 Jul 10:40:34 10:43:41 21° 47° (NE) 10:46:50 437.445
UWE-3 30 Jul 10:41:31 10:46:08 55° 101° (E) 10:50:37 435.000/436.395/437.385
DOVE 4 30 Jul 10:42:27 10:46:56 33° 307° (NW) 10:51:34 437.250
CANX-2 30 Jul 10:45:58 10:50:06 53° 296° (WNW) 10:54:12 2200.000
SO-50 30 Jul 10:46:24 10:51:16 78° 152° (SSE) 10:56:03 436.795
ANTELSAT 30 Jul 10:50:28 10:55:11 74° 255° (WSW) 10:59:56 437.575/2403.000
HO-68 30 Jul 10:54:53 11:02:09 82° 297° (WNW) 11:09:22 435.675
CUTE 1.7 + AOD 2 30 Jul 10:58:43 11:02:48 47° 297° (WNW) 11:06:51 437.475
QB50P1 30 Jul 11:01:40 11:05:44 44° 60° (ENE) 11:09:50 145.935-145.965
AO-7 30 Jul 11:05:59 11:12:41 28° 0° (N) 11:19:24 29.400- 29.500
GOMX 1 30 Jul 11:08:00 11:11:18 18° 319° (NW) 11:14:44 467.674
POPSAT HIP 1 30 Jul 11:08:24 11:12:32 48° 62° (ENE) 11:16:42 437.405
Oscar 11 30 Jul 11:08:46 11:13:06 63° 104° (ESE) 11:17:23 145.826/435.025
CUBEBUG 2 30 Jul 11:11:15 11:16:03 77° 291° (WNW) 11:20:43 437.445
HUMSAT D 30 Jul 11:17:36 11:21:14 27° 92° (E) 11:24:48 437.325/437.525
NOAA 18 30 Jul 11:19:07 11:23:16 22° 325° (NW) 11:27:24 137.9125
Oscar 19 30 Jul 11:20:12 11:23:51 20° 38° (NE) 11:27:32 437.125/150
ITAMSAT 1 30 Jul 11:26:10 11:28:07 12° 17° (NNE) 11:30:04 435.822/435.867
M-CUBED/EXP-1 PRIME 30 Jul 11:29:21 11:33:24 28° 100° (E) 11:37:29 437.505
QB50P2 30 Jul 11:30:08 11:34:23 70° 67° (ENE) 11:38:42 145.880/145.840
Gurwin Techsat 1B 30 Jul 11:30:29 11:33:50 17° 31° (NNE) 11:37:11 435.225
Cubesat XI-IV 30 Jul 11:30:40 11:34:13 18° 328° (NNW) 11:37:45 437.490
SEEDS 30 Jul 11:31:26 11:35:16 36° 302° (WNW) 11:39:05 437.485
TIGRISAT 30 Jul 11:31:34 11:36:02 42° 263° (W) 11:40:33 435.000
Cosmos 2504 30 Jul 11:32:40 11:41:22 62° 94° (E) 11:49:46 435.465 / 435.565
POLYITAN 1 30 Jul 11:32:45 11:37:02 71° 68° (ENE) 11:41:21 437.675
COMPASS 1 30 Jul 11:36:23 11:40:17 40° 300° (WNW) 11:44:10 437.405
JAS-2 30 Jul 11:38:25 11:43:35 45° 56° (ENE) 11:48:31 435.910
UNISAT 6 30 Jul 11:49:40 11:53:52 31° 267° (W) 11:58:05 437.425
AUBIESAT-1 30 Jul 11:52:16 11:56:31 34° 103° (ESE) 12:00:46 437.475
DELFI C3 30 Jul 11:53:10 11:57:09 78° 106° (ESE) 12:01:06 145.870
CUTE-I 30 Jul 11:53:19 11:56:23 16° 333° (NNW) 11:59:25 437.470
AAUSAT CUBESAT 2 30 Jul 12:01:13 12:04:54 32° 303° (WNW) 12:08:35 437.432
NOAA 15 30 Jul 12:01:50 12:04:17 13° 339° (NNW) 12:06:45 137.62
AISAT 30 Jul 12:03:13 12:05:30 14° 82° (E) 12:07:46 437.250
CINEMA 3 30 Jul 12:05:32 12:09:28 24° 314° (NW) 12:13:24 145.822/145.860
YUBILEINY 30 Jul 12:06:20 12:15:04 61° 297° (WNW) 12:23:52 435.215
FUNcube-1 30 Jul 12:07:23 12:11:51 56° 296° (WNW) 12:16:12 145.935
ZACube-1 30 Jul 12:10:23 12:14:50 52° 297° (WNW) 12:19:10 437.345
NANOSAT C BR1 30 Jul 12:12:34 12:16:49 65° 256° (WSW) 12:21:06 145.865
BUGSAT 1 30 Jul 12:14:22 12:18:31 76° 68° (ENE) 12:22:46 437.445
DUCHIFAT 1 30 Jul 12:15:03 12:19:16 65° 255° (WSW) 12:23:34 145.980
50 SAT 30 Jul 12:17:20 12:19:11 13° 85° (E) 12:21:01 437.505
UWE-3 30 Jul 12:18:11 12:22:31 38° 303° (WNW) 12:26:44 435.000/436.395/437.385
DOVE 4 30 Jul 12:21:00 12:23:26 14° 329° (NNW) 12:25:55 437.250
CANX-2 30 Jul 12:22:36 12:25:13 16° 318° (NW) 12:27:48 2200.000
SPROUT 30 Jul 12:23:47 12:25:05 11° 79° (ENE) 12:26:23 437.525
Cosmos 2491 30 Jul 12:23:58 12:29:10 18° 300° (WNW) 12:34:23 435.465 / 435.565
SO-50 30 Jul 12:27:08 12:31:57 69° 355° (N) 12:36:41 436.795
ANTELSAT 30 Jul 12:29:27 12:32:43 18° 276° (W) 12:36:01 437.575/2403.000
RS-15 30 Jul 12:33:53 12:46:04 81° 7° (N) 12:58:33 29.354- 29.394
CUTE 1.7 + AOD 2 30 Jul 12:35:26 12:37:49 15° 319° (NW) 12:40:12 437.475
QB50P1 30 Jul 12:37:32 12:41:36 41° 262° (W) 12:45:43 145.935-145.965
HO-68 30 Jul 12:42:50 12:49:14 36° 321° (NW) 12:55:38 435.675
POPSAT HIP 1 30 Jul 12:44:28 12:48:28 38° 263° (W) 12:52:30 437.405
CUBEBUG 1 30 Jul 12:44:57 12:48:45 27° 92° (E) 12:52:32 437.445
Oscar 11 30 Jul 12:45:13 12:49:03 31° 305° (NW) 12:52:52 145.826/435.025
CUBEBUG 2 30 Jul 12:48:21 12:52:06 23° 313° (NW) 12:55:47 437.445
ESTCUBE 1 30 Jul 12:52:15 12:56:29 39° 97° (E) 13:00:43 437.505/2401.250
HUMSAT D 30 Jul 12:53:01 12:57:14 65° 294° (WNW) 13:01:23 437.325/437.525
VELOX 1 30 Jul 12:53:24 12:57:16 28° 93° (E) 13:01:06 145.980
AO-7 30 Jul 12:56:16 13:03:36 36° 27° (NNE) 13:10:57 29.400- 29.500
Oscar 19 30 Jul 12:57:20 13:02:20 54° 60° (ENE) 13:07:22 437.125/150
NOAA 18 30 Jul 12:59:47 13:02:14 13° 349° (N) 13:04:42 137.9125
AIST 1 30 Jul 13:00:17 13:03:23 20° 83° (E) 13:06:31
ITAMSAT 1 30 Jul 13:02:00 13:06:03 23° 41° (NE) 13:10:06 435.822/435.867
M-CUBED/EXP-1 PRIME 30 Jul 13:03:40 13:08:21 78° 300° (WNW) 13:13:05 437.505
QB50P2 30 Jul 13:07:01 13:10:38 26° 269° (W) 13:14:17 145.880/145.840
Gurwin Techsat 1B 30 Jul 13:07:43 13:12:41 41° 54° (NE) 13:17:39 435.225
SEEDS 30 Jul 13:08:21 13:09:59 12° 324° (NW) 13:11:36 437.485
POLYITAN 1 30 Jul 13:09:39 13:13:16 26° 269° (W) 13:16:55 437.675
Cubesat XI-IV 30 Jul 13:10:58 13:12:30 11° 352° (N) 13:14:02 437.490
COMPASS 1 30 Jul 13:13:02 13:14:57 13° 322° (NW) 13:16:51 437.405
TIGRISAT 30 Jul 13:13:20 13:14:02 10° 285° (WNW) 13:14:44 435.000
JAS-2 30 Jul 13:23:23 13:28:47 52° 258° (WSW) 13:33:55 435.910
DX 1 30 Jul 13:25:15 13:29:19 36° 97° (E) 13:33:23 434.975-435.025
Cosmos 2504 30 Jul 13:26:20 13:35:04 56° 299° (WNW) 13:43:29 435.465 / 435.565
AUBIESAT-1 30 Jul 13:26:39 13:31:14 64° 303° (WNW) 13:35:52 437.475
DELFI C3 30 Jul 13:28:28 13:31:41 24° 307° (NW) 13:34:53 145.870
CUSAT 1 30 Jul 13:29:33 13:31:45 21° 59° (ENE) 13:34:11 437.405
UKube-1 30 Jul 13:31:55 13:35:54 34° 96° (E) 13:39:52 .
CUTE-I 30 Jul 13:33:19 13:34:32 11° 358° (N) 13:35:46 437.470
AAUSAT CUBESAT 2 30 Jul 13:38:13 13:39:21 11° 325° (NW) 13:40:29 437.432
AISAT 30 Jul 13:38:31 13:42:57 58° 103° (ESE) 13:47:22 437.250
NOAA 15 30 Jul 13:41:11 13:42:08 10° 3° (N) 13:43:06 137.62
CINEMA 3 30 Jul 13:43:55 13:45:07 11° 337° (NNW) 13:46:18 145.822/145.860
FUNcube-1 30 Jul 13:44:17 13:47:19 18° 318° (NW) 13:50:19 145.935
ZACube-1 30 Jul 13:47:22 13:50:18 17° 319° (NW) 13:53:12 437.345
50 SAT 30 Jul 13:49:52 13:53:30 73° 106° (ESE) 13:57:07 437.505
NANOSAT C BR1 30 Jul 13:51:02 13:53:26 15° 277° (W) 13:55:50 145.865
BUGSAT 1 30 Jul 13:51:02 13:54:24 23° 270° (W) 13:57:49 437.445
DUCHIFAT 1 30 Jul 13:53:27 13:55:50 15° 277° (W) 13:58:15 145.980
UWE-3 30 Jul 13:55:30 13:57:55 14° 325° (NW) 14:00:18 435.000/436.395/437.385
SPROUT 30 Jul 13:57:53 14:02:07 48° 101° (E) 14:06:19 437.525
YUBILEINY 30 Jul 14:06:33 14:14:01 29° 326° (NW) 14:21:31 435.215
SO-50 30 Jul 14:07:56 14:12:46 82° 20° (NNE) 14:17:26 436.795
GONETS M04 30 Jul 14:20:52 14:27:36 26° 70° (ENE) 14:34:22
CUBEBUG 1 30 Jul 14:21:03 14:25:27 69° 293° (WNW) 14:29:50 437.445
Oscar 11 30 Jul 14:22:40 14:24:05 11° 327° (NNW) 14:25:29 145.826/435.025
Cosmos 2499 30 Jul 14:24:37 14:30:42 22° 68° (ENE) 14:36:34 435.465 / 435.565
CUBEBUG 2 30 Jul 14:26:44 14:27:17 10° 336° (NNW) 14:27:49 437.445
DANDE 30 Jul 14:27:30 14:29:44 23° 59° (ENE) 14:31:57 436.750
ESTCUBE 1 30 Jul 14:29:06 14:33:28 49° 299° (WNW) 14:37:48 437.505/2401.250
HUMSAT D 30 Jul 14:29:18 14:32:15 18° 315° (NW) 14:35:08 437.325/437.525
VELOX 1 30 Jul 14:29:42 14:34:08 68° 294° (WNW) 14:38:35 145.980
HO-68 30 Jul 14:30:05 14:35:19 22° 347° (NNW) 14:40:32 435.675
AIST 1 30 Jul 14:36:11 14:40:28 87° 284° (WNW) 14:44:49
Oscar 19 30 Jul 14:37:01 14:41:52 42° 262° (W) 14:46:47 437.125/150
NOAA 18 30 Jul 14:38:19 14:40:57 14° 14° (NNE) 14:43:35 137.9125
M-CUBED/EXP-1 PRIME 30 Jul 14:38:32 14:42:23 27° 321° (NW) 14:46:19 437.505
ITAMSAT 1 30 Jul 14:39:39 14:44:50 66° 63° (ENE) 14:50:02 435.822/435.867
TISAT 1 30 Jul 14:39:41 14:43:40 37° 97° (E) 14:47:38 437.305
AO-85 30 Jul 14:41:51 14:46:26 31° 129° (SE) 14:50:46 145.980
RS-15 30 Jul 14:46:47 14:58:59 77° 217° (SW) 15:11:18 29.354- 29.394
AO-7 30 Jul 14:47:05 14:55:22 67° 52° (NE) 15:03:40 29.400- 29.500
Gurwin Techsat 1B 30 Jul 14:47:15 14:52:32 62° 256° (WSW) 14:57:51 435.225
Cubesat XI-IV 30 Jul 14:48:23 14:50:35 13° 17° (NNE) 14:52:48 437.490
SWISSCUBE 30 Jul 14:50:47 14:54:03 18° 85° (E) 14:57:18 437.505
HORYU 2 30 Jul 14:51:52 14:54:37 16° 38° (NE) 14:57:24 437.375
DX 1 30 Jul 15:01:27 15:05:43 52° 298° (WNW) 15:09:59 434.975-435.025
AUBIESAT-1 30 Jul 15:01:29 15:05:06 23° 324° (NW) 15:08:45 437.475
UKube-1 30 Jul 15:07:56 15:12:11 54° 298° (WNW) 15:16:25 .
CUTE-I 30 Jul 15:09:59 15:12:39 14° 22° (NNE) 15:15:19 437.470
CUSAT 1 30 Jul 15:11:13 15:13:54 42° 257° (WSW) 15:17:02 437.405
BEESAT 30 Jul 15:11:27 15:15:14 23° 88° (E) 15:18:59 436.000
JAS-2 30 Jul 15:12:37 15:15:14 13° 282° (WNW) 15:17:48 435.910
AISAT 30 Jul 15:15:15 15:19:19 35° 304° (NW) 15:23:23 437.250
BRITE-PL 30 Jul 15:16:24 15:17:20 11° 29° (NNE) 15:18:17 437.365/2234.400
NOAA 15 30 Jul 15:17:06 15:20:04 15° 27° (NNE) 15:23:03 137.62
Cosmos 2504 30 Jul 15:23:18 15:30:34 27° 327° (NNW) 15:37:35 435.465 / 435.565
50 SAT 30 Jul 15:23:58 15:26:51 22° 307° (NW) 15:29:42 437.505
SPROUT 30 Jul 15:34:00 15:38:03 39° 301° (WNW) 15:42:04 437.525
ITUPSAT 1 30 Jul 15:36:56 15:41:14 32° 94° (E) 15:45:30 437.325
SO-50 30 Jul 15:48:34 15:53:07 46° 222° (SW) 15:57:31 436.795
KKS-1 30 Jul 15:55:23 15:56:19 11° 78° (ENE) 15:57:15 437.445
CUBEBUG 1 30 Jul 15:57:56 16:01:08 20° 315° (NW) 16:04:21 437.445
GOMX 1 30 Jul 15:58:07 16:00:02 13° 31° (NNE) 16:02:02 467.674
ESTCUBE 1 30 Jul 16:06:40 16:09:26 16° 321° (NW) 16:12:14 437.505/2401.250
VELOX 1 30 Jul 16:06:45 16:10:01 20° 315° (NW) 16:13:17 145.980
YUBILEINY 30 Jul 16:08:10 16:14:32 21° 359° (N) 16:20:54 435.215
LilacSat-2 30 Jul 16:08:19 16:09:28 11° 38° (NE) 16:10:37 437.200
DANDE 30 Jul 16:10:15 16:12:32 26° 262° (W) 16:14:52 436.750
M-CUBED/EXP-1 PRIME 30 Jul 16:13:23 16:15:46 14° 342° (NNW) 16:18:11 437.505
Cosmos 2499 30 Jul 16:13:45 16:22:18 59° 92° (E) 16:30:23 435.465 / 435.565
GONETS M04 30 Jul 16:14:24 16:23:01 70° 97° (E) 16:31:44
TISAT 1 30 Jul 16:15:21 16:19:29 49° 298° (WNW) 16:23:37 437.305
AIST 1 30 Jul 16:15:23 16:18:44 22° 308° (NW) 16:22:07
NOAA 18 30 Jul 16:15:39 16:20:00 24° 38° (NE) 16:24:22 137.9125
HO-68 30 Jul 16:15:47 16:20:59 22° 13° (NNE) 16:26:11 435.675
ITAMSAT 1 30 Jul 16:19:54 16:24:41 35° 265° (W) 16:29:29 435.822/435.867
Oscar 19 30 Jul 16:21:15 16:22:39 11° 285° (WNW) 16:24:04 437.125/150
AO-85 30 Jul 16:21:22 16:26:32 78° 151° (SSE) 16:31:20 145.980
STARS 30 Jul 16:23:47 16:24:30 10° 78° (ENE) 16:25:13 437.465
Cubesat XI-IV 30 Jul 16:24:53 16:29:05 24° 40° (NE) 16:33:18 437.490
HORYU 2 30 Jul 16:26:01 16:30:20 47° 60° (ENE) 16:34:41 437.375
SWISSCUBE 30 Jul 16:27:55 16:32:43 72° 106° (ESE) 16:37:28 437.505
Gurwin Techsat 1B 30 Jul 16:30:11 16:33:36 17° 279° (W) 16:37:03 435.225
AUBIESAT-1 30 Jul 16:36:14 16:38:19 13° 346° (NNW) 16:40:25 437.475
DX 1 30 Jul 16:38:21 16:41:09 17° 320° (NW) 16:43:56 434.975-435.025
AO-7 30 Jul 16:40:21 16:48:31 54° 257° (WSW) 16:56:45 29.400- 29.500
UKube-1 30 Jul 16:44:41 16:47:29 17° 319° (NW) 16:50:18 .
CUTE-I 30 Jul 16:46:44 16:51:17 29° 46° (NE) 16:55:51 437.470
BEESAT 30 Jul 16:48:52 16:53:42 90° 129° (SE) 16:58:29 436.000
BRITE-PL 30 Jul 16:50:58 16:54:34 28° 52° (NE) 16:58:22 437.365/2234.400
AISAT 30 Jul 16:52:42 16:54:45 13° 327° (NNW) 16:56:49 437.250
NOAA 15 30 Jul 16:53:55 16:58:38 35° 50° (NE) 17:03:22 137.62
CINEMA 3 30 Jul 16:53:58 16:55:24 11° 24° (NNE) 16:56:50 145.822/145.860
MOZHAYETS 4 30 Jul 16:55:33 16:59:36 30° 92° (E) 17:03:37
RS-15 30 Jul 16:59:12 17:10:07 41° 246° (WSW) 17:21:03 29.354- 29.394
DOVE 4 30 Jul 17:07:44 17:10:55 19° 40° (NE) 17:14:15 437.250
SPROUT 30 Jul 17:10:56 17:13:03 13° 323° (NW) 17:15:08 437.525
ITUPSAT 1 30 Jul 17:14:42 17:19:28 65° 296° (WNW) 17:24:11 437.325
Cosmos 2504 30 Jul 17:21:33 17:27:31 20° 358° (N) 17:33:15 435.465 / 435.565
KKS-1 30 Jul 17:29:44 17:34:05 44° 100° (E) 17:38:24 437.445
SO-50 30 Jul 17:30:04 17:32:37 15° 244° (WSW) 17:35:07 436.795
GOMX 1 30 Jul 17:32:59 17:36:56 33° 54° (NE) 17:41:06 467.674
LilacSat-2 30 Jul 17:39:16 17:42:50 35° 60° (ENE) 17:46:26 437.200
M-CUBED/EXP-1 PRIME 30 Jul 17:47:06 17:48:47 12° 5° (N) 17:50:29 437.505
SEEDS 30 Jul 17:50:31 17:51:41 11° 34° (NE) 17:52:49 437.485
TISAT 1 30 Jul 17:51:49 17:54:21 16° 320° (NW) 17:56:53 437.305
NOAA 18 30 Jul 17:54:24 17:59:53 62° 61° (ENE) 18:05:24 137.9125
STARS 30 Jul 17:57:45 18:02:03 44° 99° (E) 18:06:19 437.465
HO-68 30 Jul 18:00:40 18:07:02 35° 38° (NE) 18:13:25 435.675
AO-85 30 Jul 18:02:12 18:07:15 67° 354° (N) 18:11:53 145.980
HORYU 2 30 Jul 18:02:44 18:07:01 42° 261° (W) 18:11:20 437.375
Cubesat XI-IV 30 Jul 18:03:06 18:08:27 65° 63° (ENE) 18:13:48 437.490
SWISSCUBE 30 Jul 18:06:02 18:10:16 32° 308° (NW) 18:14:29 437.505
Cosmos 2499 30 Jul 18:06:58 18:15:38 59° 297° (WNW) 18:23:48 435.465 / 435.565
YUBILEINY 30 Jul 18:07:45 18:15:07 28° 31° (NNE) 18:22:28 435.215
AUBIESAT-1 30 Jul 18:09:30 18:11:15 12° 8° (N) 18:13:02 437.475
GONETS M04 30 Jul 18:12:01 18:20:26 50° 304° (WNW) 18:28:58
AAUSAT CUBESAT 2 30 Jul 18:19:06 18:20:24 11° 35° (NE) 18:21:42 437.432
CUBESAT XI-V 30 Jul 18:25:23 18:29:31 31° 93° (E) 18:33:39 437.345
CUTE-I 30 Jul 18:25:27 18:30:51 85° 68° (ENE) 18:36:17 437.470
BEESAT 30 Jul 18:27:04 18:31:04 27° 312° (NW) 18:35:03 436.000
CINEMA 3 30 Jul 18:27:11 18:31:05 25° 47° (NE) 18:35:06 145.822/145.860
BRITE-PL 30 Jul 18:28:37 18:32:49 71° 256° (WSW) 18:37:14 437.365/2234.400
FUNcube-1 30 Jul 18:29:44 18:30:37 10° 28° (NNE) 18:31:29 145.935
ZACube-1 30 Jul 18:32:24 18:33:42 11° 29° (NNE) 18:34:59 437.345
MOZHAYETS 4 30 Jul 18:32:35 18:37:10 66° 294° (WNW) 18:41:42
NOAA 15 30 Jul 18:32:54 18:38:10 74° 253° (WSW) 18:43:27 137.62
AO-7 30 Jul 18:37:51 18:43:27 19° 283° (WNW) 18:49:06 29.400- 29.500
CANX-2 30 Jul 18:38:37 18:41:59 23° 50° (NE) 18:45:22 2200.000
UWE-3 30 Jul 18:39:18 18:41:45 14° 35° (NE) 18:44:12 435.000/436.395/437.385
DOVE 4 30 Jul 18:43:18 18:47:45 55° 63° (ENE) 18:52:32 437.250
CUTE 1.7 + AOD 2 30 Jul 18:51:05 18:54:34 25° 52° (NE) 18:58:04 437.475
ITUPSAT 1 30 Jul 18:53:04 18:56:38 21° 318° (NW) 19:00:12 437.325
Oscar 11 30 Jul 19:04:52 19:07:04 14° 38° (NE) 19:09:17 145.826/435.025
KKS-1 30 Jul 19:06:26 19:10:43 44° 301° (WNW) 19:14:59 437.445
CUBEBUG 2 30 Jul 19:08:06 19:11:44 22° 46° (NE) 19:15:24 437.445
PCSat 30 Jul 19:08:51 19:12:25 18° 110° (ESE) 19:15:59 145.827
GOMX 1 30 Jul 19:10:30 19:14:49 63° 257° (WSW) 19:19:29 467.674
LilacSat-2 30 Jul 19:13:20 19:17:07 46° 260° (W) 19:20:55 437.200
RS-15 30 Jul 19:13:21 19:18:47 14° 274° (W) 19:24:14 29.354- 29.394
M-CUBED/EXP-1 PRIME 30 Jul 19:18:59 19:21:54 18° 27° (NNE) 19:24:55 437.505
SEEDS 30 Jul 19:22:34 19:26:18 31° 56° (NE) 19:30:02 437.485
BEESAT 3 30 Jul 19:23:08 19:26:27 26° 130° (SE) 19:29:48 437.485
